Home   Weather   Wailuku   Past weeks

Flag for USA Past Weather in Wailuku, Hawaii, USA — Yesterday and Last 2 Weeks

Now
75 °F

Clear.


Feels Like: 75 °F
Forecast: 70 / 81 °F
Wind: 10 mph from Southeast

Location: Kahului Airport

Current Time: Dec 4, 2016 at 6:36:38 am

Latest Report: Dec 4, 2016 at 5:54 am


Visibility: 10 mi

Pressure: 29.87 "Hg

Humidity: 82%

Dew Point: 69 °F

Location of WailukuLocation

Past Weather in Wailuku — Graph

°F

Wailuku Temperature Yesterday

Maximum temperature yesterday: 84 °F (at 12:54 pm)
Minimum temperature yesterday: 69 °F (at 3:54 am)
Average temperature yesterday: 77 °F

High & Low Weather Summary for the Past Weeks

 TemperatureHumidityPressure
High85 °F (Nov 23, 12:54 pm)91% (Nov 24, 11:54 pm)30.16 "Hg (Nov 24, 11:54 pm)
Low64 °F (Dec 2, 3:54 am)46% (Nov 26, 1:54 pm)29.80 "Hg (Dec 3, 3:27 pm)
Average76 °F70%30.03 "Hg
* Reported Nov 19 4:54 am — Dec 4 4:54 am, Wailuku, Weather by CustomWeather, © 2016

Note: Actual official high and low records may vary slightly from our data, if they occured in-between our weather recording intervals... More about our weather records

Advertising

Wailuku Weather History for the Previous 24 Hours

Scroll right to see more
 ConditionsComfort  
Time TempWeatherWind HumidityBarometerVisibility
4:54 am
Sun, Dec 4
75 °FClear.12 mph82%29.86 "Hg10 mi
3:54 am74 °FClear.14 mph82%29.86 "Hg10 mi
2:54 am74 °FClear.8 mph82%29.86 "Hg10 mi
1:54 am75 °FClear.9 mph79%29.86 "Hg10 mi
12:54 am76 °FClear.15 mph80%29.85 "Hg10 mi
11:54 pm
Sat, Dec 3
76 °FClear.18 mph82%29.86 "Hg10 mi
10:54 pm75 °FPassing clouds.13 mph85%29.86 "Hg10 mi
9:54 pm76 °FPassing clouds.6 mph82%29.87 "Hg10 mi
8:54 pm76 °FPassing clouds.12 mph77%29.87 "Hg10 mi
7:54 pm76 °FClear.5 mph77%29.86 "Hg10 mi
6:54 pm77 °FPassing clouds.15 mph79%29.83 "Hg10 mi
5:54 pm78 °FPassing clouds.15 mph74%29.83 "Hg10 mi
4:54 pm80 °FScattered clouds.10 mph67%29.82 "Hg10 mi
3:54 pm81 °FBroken clouds.14 mph67%29.81 "Hg10 mi
3:27 pm81 °FBroken clouds.13 mph66%29.80 "Hg10 mi
2:54 pm81 °FBroken clouds.No wind65%29.81 "Hg10 mi
1:54 pm82 °FBroken clouds.6 mph60%29.82 "Hg10 mi
12:54 pm84 °FScattered clouds.6 mph57%29.82 "Hg10 mi
11:54 am83 °FScattered clouds.6 mph59%29.87 "Hg10 mi
10:54 am82 °FScattered clouds.9 mph58%29.90 "Hg10 mi
9:54 am81 °FSunny.6 mph58%29.91 "Hg10 mi
8:54 am78 °FScattered clouds.5 mph69%29.92 "Hg10 mi
7:54 am72 °FScattered clouds.5 mph84%29.91 "Hg10 mi
6:54 am71 °FScattered clouds.5 mph81%29.91 "Hg10 mi
Weather by CustomWeather, © 2016

See weather overviewHow to use our weather pages